FW2418 Weather Reports


time (UTC)temp
F
wind
direction
speed
knots
gust
knots
rain 1hr
in
rain 24hr
in
rain mn
in
humidity
%
barometer
mb
20260503023445 68 40 0.9 7.0 0.01 0.20 0.20 96 1010.6
20260503022444 68 8 1.7 7.8 0.01 0.20 0.20 95 1010.3
20260503021443 69 13 2.6 6.1 0.00 0.19 0.19 96 1009.9
20260503020442 69 311 0.0 0.9 0.00 0.19 0.19 96 1009.6
20260503015441 69 356 0.0 0.0 0.00 0.19 0.19 96 1009.6
20260503014409 69 359 0.0 0.0 0.00 0.19 0.19 96 1009.2
20260503013407 69 359 0.0 0.0 0.00 0.19 0.19 96 1009.2
20260503012406 69 356 0.0 0.9 0.00 0.19 0.19 96 1009.2
20260503011405 69 358 0.0 0.9 0.00 0.19 0.19 96 1008.9
20260503010404 69 304 0.0 0.9 0.00 0.19 0.19 96 1008.9
20260503005332 69 304 0.0 0.0 0.00 0.19 0.19 96 1008.9
20260503004331 70 303 0.0 0.9 0.00 0.19 0.19 96 1008.6
20260503003330 70 303 0.0 0.9 0.00 0.19 0.19 95 1008.6
20260503002329 70 303 0.0 0.9 0.00 0.19 0.19 95 1008.6
20260503001257 70 267 0.9 0.9 0.00 0.19 0.19 95 1008.2
20260503000256 70 261 0.9 0.9 0.00 0.19 0.19 94 1008.2
20260502235255 71 278 0.0 2.6 0.00 0.19 0.19 94 1007.9
20260502234254 71 256 0.9 2.6 0.00 0.19 0.19 94 1007.9
20260502233253 71 229 0.9 3.5 0.00 0.19 0.19 95 1007.9
20260502232252 71 241 0.9 3.5 0.00 0.19 0.19 95 1007.9
20260502231252 71 260 0.9 1.7 0.00 0.19 0.19 95 1007.9
20260502230251 70 236 0.9 1.7 0.00 0.19 0.19 95 1007.9
20260502225250 70 283 0.9 1.7 0.00 0.19 0.19 95 1007.9
20260502224249 70 273 0.9 2.6 0.00 0.19 0.19 95 1007.5
20260502223248 70 272 0.9 2.6 0.00 0.19 0.19 95 1007.5
20260502222215 70 243 0.9 5.2 0.00 0.19 0.19 95 1007.2
20260502221214 70 301 0.9 5.2 0.00 0.19 0.19 96 1007.5
20260502220213 70 272 0.9 3.5 0.00 0.19 0.19 95 1007.2
20260502215213 70 243 0.9 2.6 0.00 0.19 0.19 96 1007.2
20260502214212 69 274 0.9 3.5 0.00 0.19 0.19 96 1007.2
20260502213211 69 279 0.9 1.7 0.02 0.19 0.19 96 1007.2
20260502212210 69 243 0.9 1.7 0.05 0.19 0.19 96 1007.2
20260502211209 69 244 0.0 0.9 0.05 0.19 0.19 97 1006.9
20260502210209 69 250 0.0 2.6 0.05 0.19 0.19 97 1006.9
20260502205208 69 303 0.9 4.3 0.05 0.19 0.19 96 1007.2
20260502204207 69 244 0.9 4.3 0.06 0.19 0.19 96 1006.9
20260502203206 69 252 0.9 4.3 0.04 0.17 0.17 96 1007.5
20260502202205 69 249 1.7 3.5 0.02 0.14 0.14 96 1008.5
20260502201205 69 250 0.9 1.7 0.04 0.14 0.14 95 1008.2
20260502200204 69 256 0.9 2.6 0.13 0.14 0.14 95 1007.9
20260502195202 69 267 0.9 3.5 0.14 0.14 0.14 95 1007.9
20260502194202 69 280 0.9 3.5 0.13 0.13 0.13 95 1008.2
20260502193200 69 295 1.7 4.3 0.13 0.13 0.13 94 1008.5
20260502192200 69 293 0.9 14.8 0.12 0.12 0.12 93 1009.2
20260502191159 71 279 1.7 15.6 0.10 0.10 0.10 91 1009.2
20260502190158 77 279 6.1 12.2 0.01 0.01 0.01 77 1009.2
20260502185157 80 280 5.2 11.3 0.00 0.00 0.00 64 1008.6
20260502184156 83 298 4.3 9.6 0.00 0.00 0.00 69 1008.2
20260502183155 84 251 0.9 3.5 0.00 0.00 0.00 68 1007.6
20260502182154 84 265 1.7 5.2 0.00 0.00 0.00 66 1007.6
20260502181153 85 253 0.9 5.2 0.00 0.00 0.00 64 1007.6
20260502180152 85 270 2.6 7.0 0.00 0.00 0.00 63 1007.6
20260502164011 85 253 0.9 6.1 0.00 0.00 0.00 69 1007.6
20260502162938 84 278 1.7 7.0 0.00 0.00 0.00 68 1007.9
20260502161937 85 259 1.7 7.0 0.00 0.00 0.00 67 1007.9
20260502160936 85 216 1.7 9.6 0.00 0.00 0.00 66 1007.9
20260502151932 83 200 2.6 6.1 0.00 0.00 0.00 69 1008.3
20260502150931 82 175 0.9 6.1 0.00 0.00 0.00 71 1008.3
20260502130746 75 163 1.7 7.0 0.00 0.00 0.00 91 1008.2
20260502123712 74 163 1.7 5.2 0.00 0.00 0.00 96 1007.9
20260502122640 72 157 1.7 2.6 0.00 0.00 0.00 97 1007.9
20260502121639 71 173 1.7 2.6 0.00 0.00 0.00 98 1007.9
20260502120638 70 158 0.0 1.7 0.00 0.00 0.00 99 1007.6
20260502115637 69 314 0.0 0.0 0.00 0.00 0.00 99 1007.6
20260502114636 68 314 0.0 0.0 0.00 0.00 0.00 98 1007.6
20260502113624 68 314 0.0 0.0 0.00 0.00 0.00 98 1007.6
20260502112623 68 314 0.0 0.0 0.00 0.00 0.00 98 1007.6
20260502111622 68 313 0.0 0.0 0.00 0.00 0.00 98 1007.6
20260502110550 68 314 0.0 0.0 0.00 0.00 0.00 98 1007.2
20260502105549 67 314 0.0 0.0 0.00 0.00 0.00 98 1006.9
20260502104548 67 313 0.0 0.0 0.00 0.00 0.00 98 1006.9
20260502103547 67 313 0.0 0.0 0.00 0.00 0.00 98 1006.5
20260502102515 67 313 0.0 0.0 0.00 0.00 0.00 97 1006.6
20260502101514 67 313 0.0 0.0 0.00 0.00 0.00 97 1006.9
20260502100513 67 313 0.0 0.0 0.00 0.00 0.00 97 1006.9
20260502091438 68 314 0.0 0.0 0.00 0.00 0.00 96 1007.6
20260502090437 69 313 0.0 0.0 0.00 0.00 0.00 96 1007.6
20260502071356 71 269 0.0 0.9 0.00 0.00 0.00 94 1007.6
20260502070355 71 269 0.0 0.9 0.00 0.00 0.00 94 1007.6
20260502065354 71 278 0.0 0.9 0.00 0.00 0.00 94 1007.6
20260502064354 71 278 0.0 0.9 0.00 0.00 0.00 94 1007.9
20260502063353 71 280 0.0 0.9 0.00 0.00 0.00 94 1007.9
20260502062321 71 262 0.0 0.9 0.00 0.00 0.00 94 1008.3
20260502061320 71 255 0.9 0.9 0.00 0.00 0.00 94 1008.3
20260502060319 71 255 0.0 0.9 0.00 0.00 0.00 95 1008.3
20260502055318 70 131 0.0 0.0 0.00 0.00 0.00 95 1008.3
20260502054246 71 131 0.0 0.0 0.00 0.00 0.00 95 1008.3
20260502053244 71 131 0.0 0.0 0.00 0.00 0.00 95 1008.3
20260502052244 70 131 0.0 0.0 0.00 0.00 0.00 95 1008.6
20260502051212 71 131 0.0 0.0 0.00 0.00 0.00 94 1008.6
20260502050140 71 131 0.0 0.0 0.00 0.00 0.00 94 1008.3
20260502045139 71 131 0.0 0.0 0.00 0.00 0.00 94 1008.6
20260502044138 71 131 0.0 0.0 0.00 0.00 0.00 93 1008.6
20260502043137 71 131 0.0 0.0 0.00 0.00 0.00 93 1008.3
20260502042136 72 131 0.0 0.0 0.00 0.00 0.00 92 1008.3
20260502041136 72 131 0.0 0.0 0.00 0.00 0.00 92 1008.6
20260502040135 72 131 0.0 0.0 0.00 0.00 0.00 92 1008.6
20260502035134 73 131 0.0 0.0 0.00 0.00 0.00 91 1008.6
20260502034133 73 131 0.0 0.0 0.00 0.00 0.00 90 1008.6
20260502033132 73 131 0.0 0.0 0.00 0.00 0.00 89 1008.6
20260502032131 74 131 0.0 0.0 0.00 0.00 0.00 88 1008.6
20260502031130 74 131 0.0 0.9 0.00 0.00 0.00 88 1008.6
20260502030129 75 79 0.0 0.9 0.00 0.00 0.00 87 1008.6
20260502025129 75 95 0.9 0.9 0.00 0.00 0.00 86 1008.6
20260502024128 75 71 0.0 0.9 0.00 0.00 0.00 85 1008.6